User: anonymous   Login
Location: Bluff Heights
(33.7692°N, 118.1592°W)
Time: 09:38:23
(UTC+00:00)
Language:

Transit 4A - Orbit

View from above orbital plane
View from above orbital plane
View from above satellite
View from above satellite

Ground track
Ground track

The orbit data is extracted from the following two-line orbital elements,

1 00116U 61015A   21214.87396299 -.00000071  00000-0  47170-5 0  9997
2 00116  66.8096 282.4348 0068620  79.7613 281.1195 13.91794000 49050
Epoch (UTC): 02 August 2021 20:58:30
Eccentricity: 0.0068620
inclination: 66.8096°
perigee height: 872 km
apogee height: 972 km
right ascension of ascending node: 282.4348°
argument of perigee: 79.7613°
revolutions per day: 13.91794000
mean anomaly at epoch: 281.1195°
orbit number at epoch: 4905

The dashed part of the orbit path shows where the satellite is in the earth's shadow,  

DLR